• In Hungary
  • List of Countries
  • For 7 days
  • Water Temperature
  • Satellite Maps
  • Weather Map
  • News
  • Weather Widgets
  • user-avatar
    Login

    Hourly Weather Demidovka

    Today, 23 October, Tuesday

    Time Temperature Precipitation Wind Pressure Humidity
    00:00 +2°C° 0 mm 3 mps 745 mmHg 81%
    01:00 +2°C° 0 mm 3 mps 745 mmHg 82%
    02:00 +2°C° 0 mm 3 mps 744 mmHg 83%
    03:00 +1°C° 0 mm 3 mps 743 mmHg 83%
    04:00 +1°C° 0 mm 3 mps 742 mmHg 83%
    05:00 +1°C° 0 mm 3 mps 742 mmHg 83%
    06:00 0°C° 0 mm 4 mps 741 mmHg 83%
    07:00 0°C° 0 mm 4 mps 741 mmHg 82%
    08:00 +1°C° 0 mm 4 mps 740 mmHg 81%
    09:00 +1°C° 0 mm 5 mps 740 mmHg 80%
    10:00 +2°C° 0 mm 5 mps 739 mmHg 77%
    11:00 +5°C° 0 mm 5 mps 739 mmHg 75%
    12:00 +6°C° 0 mm 5 mps 738 mmHg 72%
    13:00 +6°C° 0.1 mm 5 mps 738 mmHg 74%
    14:00 +6°C° 0.1 mm 5 mps 737 mmHg 76%
    15:00 +6°C° 0.1 mm 4 mps 737 mmHg 78%
    16:00 +5°C° 0.1 mm 4 mps 736 mmHg 80%
    17:00 +5°C° 0.1 mm 4 mps 736 mmHg 82%
    18:00 +5°C° 0.1 mm 4 mps 735 mmHg 85%
    19:00 +5°C° 0.1 mm 4 mps 735 mmHg 85%
    20:00 +4°C° 0.1 mm 4 mps 734 mmHg 86%
    21:00 +4°C° 0.1 mm 4 mps 733 mmHg 87%
    22:00 +4°C° 0 mm 4 mps 733 mmHg 87%
    23:00 +4°C° 0 mm 4 mps 732 mmHg 86%

    Tomorrow, 24 October, Wednesday

    Time Temperature Precipitation Wind Pressure Humidity
    00:00 +4°C° 0 mm 4 mps 731 mmHg 86%
    01:00 +4°C° 0.2 mm 4 mps 731 mmHg 85%
    02:00 +4°C° 0.2 mm 4 mps 730 mmHg 84%
    03:00 +4°C° 0.2 mm 4 mps 729 mmHg 84%
    04:00 +4°C° 0.3 mm 4 mps 728 mmHg 84%
    05:00 +3°C° 0.3 mm 5 mps 728 mmHg 84%
    06:00 +3°C° 0.3 mm 5 mps 727 mmHg 84%
    07:00 +3°C° 0.1 mm 5 mps 726 mmHg 82%
    08:00 +5°C° 0.1 mm 5 mps 726 mmHg 81%
    09:00 +4°C° 0.1 mm 6 mps 725 mmHg 80%
    10:00 +4°C° 0.4 mm 6 mps 725 mmHg 80%
    11:00 +4°C° 0.4 mm 6 mps 724 mmHg 80%
    12:00 +5°C° 0.4 mm 7 mps 723 mmHg 81%
    13:00 +5°C° 0.2 mm 6 mps 723 mmHg 81%
    14:00 +7°C° 0.2 mm 6 mps 723 mmHg 81%
    15:00 +7°C° 0.2 mm 5 mps 722 mmHg 81%
    16:00 +7°C° 0.5 mm 5 mps 722 mmHg 84%
    17:00 +6°C° 0.5 mm 5 mps 722 mmHg 86%
    18:00 +6°C° 0.5 mm 5 mps 722 mmHg 89%
    19:00 +6°C° 0.4 mm 5 mps 722 mmHg 89%
    20:00 +5°C° 0.4 mm 4 mps 722 mmHg 89%
    21:00 +5°C° 0.4 mm 4 mps 722 mmHg 89%
    22:00 +5°C° 0 mm 4 mps 722 mmHg 90%
    23:00 +4°C° 0 mm 4 mps 722 mmHg 90%

    Day after tomorrow, 25 October, Thursday

    Time Temperature Precipitation Wind Pressure Humidity
    00:00 +4°C° 0 mm 4 mps 722 mmHg 91%
    01:00 +4°C° 0 mm 4 mps 722 mmHg 91%
    02:00 +4°C° 0 mm 3 mps 722 mmHg 92%
    03:00 +3°C° 0 mm 3 mps 722 mmHg 92%
    04:00 +3°C° 0 mm 3 mps 722 mmHg 92%
    05:00 +2°C° 0 mm 3 mps 722 mmHg 93%
    06:00 +2°C° 0 mm 3 mps 722 mmHg 94%
    07:00 +2°C° 0 mm 3 mps 722 mmHg 92%
    08:00 +1°C° 0 mm 4 mps 722 mmHg 90%
    09:00 +1°C° 0 mm 4 mps 722 mmHg 88%
    10:00 +2°C° 0.2 mm 5 mps 722 mmHg 86%
    11:00 +2°C° 0.2 mm 5 mps 722 mmHg 84%
    12:00 +2°C° 0.2 mm 5 mps 722 mmHg 83%
    13:00 +3°C° 0.3 mm 5 mps 722 mmHg 83%
    14:00 +3°C° 0.3 mm 5 mps 723 mmHg 83%
    15:00 +3°C° 0.3 mm 5 mps 723 mmHg 83%
    16:00 +3°C° 0.1 mm 5 mps 723 mmHg 83%
    17:00 +3°C° 0.1 mm 5 mps 724 mmHg 83%
    18:00 +2°C° 0.1 mm 5 mps 724 mmHg 82%
    19:00 +2°C° 0.1 mm 5 mps 725 mmHg 82%
    20:00 +2°C° 0.1 mm 5 mps 726 mmHg 82%
    21:00 +1°C° 0.1 mm 5 mps 726 mmHg 81%
    22:00 +1°C° 0 mm 4 mps 727 mmHg 82%
    23:00 +1°C° 0 mm 4 mps 727 mmHg 82%

    26 October, Friday

    Time Temperature Precipitation Wind Pressure Humidity
    00:00 0°C° 0 mm 4 mps 728 mmHg 83%
    01:00 0°C° 0 mm 4 mps 728 mmHg 81%
    02:00 0°C° 0 mm 4 mps 729 mmHg 80%
    03:00 0°C° 0 mm 4 mps 729 mmHg 79%
    04:00 0°C° 0 mm 4 mps 729 mmHg 79%
    05:00 0°C° 0 mm 4 mps 730 mmHg 79%
    06:00 0°C° 0 mm 4 mps 730 mmHg 79%
    07:00 0°C° 0 mm 4 mps 731 mmHg 80%
    08:00 +1°C° 0 mm 5 mps 731 mmHg 80%
    09:00 +1°C° 0 mm 5 mps 732 mmHg 81%
    10:00 +1°C° 0 mm 5 mps 732 mmHg 76%
    11:00 +2°C° 0 mm 5 mps 732 mmHg 71%
    12:00 +3°C° 0 mm 5 mps 733 mmHg 66%
    13:00 +3°C° 0 mm 5 mps 733 mmHg 65%
    14:00 +3°C° 0 mm 5 mps 733 mmHg 64%
    15:00 +3°C° 0 mm 5 mps 733 mmHg 63%
    16:00 +3°C° 0.1 mm 5 mps 733 mmHg 68%
    17:00 +2°C° 0.1 mm 5 mps 734 mmHg 73%
    18:00 +3°C° 0.1 mm 4 mps 734 mmHg 78%
    19:00 +1°C° 0.2 mm 4 mps 734 mmHg 79%
    20:00 +1°C° 0.2 mm 5 mps 735 mmHg 81%
    21:00 +1°C° 0.2 mm 5 mps 735 mmHg 83%
    22:00 +1°C° 0.1 mm 5 mps 736 mmHg 85%
    23:00 0°C° 0.1 mm 5 mps 736 mmHg 87%

    27 October, Saturday

    Time Temperature Precipitation Wind Pressure Humidity
    00:00 0°C° 0.1 mm 4 mps 736 mmHg 89%
    01:00 -1°C° 0 mm 4 mps 737 mmHg 89%
    02:00 -1°C° 0 mm 4 mps 737 mmHg 89%
    03:00 -1°C° 0 mm 5 mps 738 mmHg 89%
    04:00 -1°C° 0 mm 5 mps 738 mmHg 90%
    05:00 -2°C° 0 mm 5 mps 739 mmHg 90%
    06:00 -2°C° 0 mm 5 mps 739 mmHg 91%
    07:00 -1°C° 0 mm 5 mps 740 mmHg 90%
    08:00 -1°C° 0 mm 5 mps 740 mmHg 88%
    09:00 0°C° 0 mm 5 mps 740 mmHg 87%
    10:00 +1°C° 0 mm 5 mps 740 mmHg 82%
    11:00 +2°C° 0 mm 6 mps 740 mmHg 77%
    12:00 +3°C° 0 mm 6 mps 740 mmHg 72%
    13:00 +3°C° 0 mm 6 mps 739 mmHg 71%
    14:00 +4°C° 0 mm 7 mps 739 mmHg 70%
    15:00 +4°C° 0 mm 7 mps 738 mmHg 69%
    16:00 +4°C° 0.2 mm 8 mps 738 mmHg 73%
    17:00 +4°C° 0.2 mm 8 mps 737 mmHg 77%
    18:00 +4°C° 0.2 mm 8 mps 736 mmHg 80%
    19:00 +5°C° 0.5 mm 9 mps 736 mmHg 81%
    20:00 +5°C° 0.5 mm 9 mps 735 mmHg 81%
    21:00 +6°C° 0.5 mm 9 mps 735 mmHg 81%
    22:00 +6°C° 0.6 mm 9 mps 735 mmHg 82%
    23:00 +6°C° 0.6 mm 8 mps 735 mmHg 83%

    28 October, Sunday

    Time Temperature Precipitation Wind Pressure Humidity
    00:00 +6°C° 0.6 mm 8 mps 735 mmHg 84%
    01:00 +5°C° 0.1 mm 7 mps 735 mmHg 85%
    02:00 +5°C° 0.1 mm 6 mps 735 mmHg 85%
    03:00 +4°C° 0.1 mm 6 mps 736 mmHg 85%
    04:00 +4°C° 0 mm 6 mps 736 mmHg 85%
    05:00 +3°C° 0 mm 6 mps 737 mmHg 85%
    06:00 +3°C° 0 mm 6 mps 737 mmHg 85%
    07:00 +3°C° 0 mm 6 mps 738 mmHg 84%
    08:00 +3°C° 0 mm 6 mps 739 mmHg 82%
    09:00 +3°C° 0 mm 6 mps 740 mmHg 81%
    10:00 +3°C° 0 mm 6 mps 740 mmHg 77%
    11:00 +3°C° 0 mm 6 mps 741 mmHg 73%
    12:00 +3°C° 0 mm 6 mps 742 mmHg 69%
    13:00 +3°C° 0 mm 5 mps 743 mmHg 69%
    14:00 +4°C° 0 mm 4 mps 743 mmHg 69%
    15:00 +4°C° 0 mm 4 mps 744 mmHg 69%
    16:00 +3°C° 0 mm 3 mps 744 mmHg 71%
    17:00 +4°C° 0 mm 2 mps 745 mmHg 74%
    18:00 +4°C° 0 mm 2 mps 746 mmHg 77%
    19:00 +5°C° 0 mm 1 mps 746 mmHg 78%
    20:00 +4°C° 0 mm 1 mps 747 mmHg 79%
    21:00 +4°C° 0 mm 1 mps 747 mmHg 80%
    22:00 +4°C° 0 mm 1 mps 747 mmHg 80%
    23:00 +4°C° 0 mm 1 mps 748 mmHg 81%

    29 October, Monday

    Time Temperature Precipitation Wind Pressure Humidity
    00:00 +4°C° 0 mm 1 mps 748 mmHg 82%
    01:00 +3°C° 0 mm 1 mps 748 mmHg 81%
    02:00 +2°C° 0 mm 2 mps 749 mmHg 81%
    03:00 +2°C° 0 mm 2 mps 749 mmHg 80%
    04:00 +1°C° 0.1 mm 3 mps 749 mmHg 80%
    05:00 +1°C° 0.1 mm 3 mps 749 mmHg 80%
    06:00 0°C° 0.1 mm 4 mps 748 mmHg 80%
    07:00 0°C° 0.8 mm 4 mps 749 mmHg 81%
    08:00 0°C° 0.8 mm 4 mps 749 mmHg 83%
    09:00 0°C° 0.8 mm 4 mps 749 mmHg 85%
    10:00 0°C° 0.7 mm 5 mps 749 mmHg 86%
    11:00 0°C° 0.7 mm 5 mps 749 mmHg 87%
    12:00 +1°C° 0.7 mm 5 mps 748 mmHg 89%
    13:00 +1°C° 0.1 mm 5 mps 748 mmHg 89%
    14:00 +1°C° 0.1 mm 6 mps 748 mmHg 89%
    15:00 +1°C° 0.1 mm 6 mps 747 mmHg 89%
    16:00 +1°C° 0 mm 5 mps 747 mmHg 90%
    17:00 +1°C° 0 mm 5 mps 747 mmHg 90%
    18:00 +2°C° 0 mm 5 mps 747 mmHg 91%
    19:00 +2°C° 0 mm 5 mps 747 mmHg 92%
    20:00 +2°C° 0 mm 5 mps 747 mmHg 93%
    21:00 +4°C° 0 mm 4 mps 747 mmHg 95%
    22:00 +4°C° 0 mm 4 mps 747 mmHg 95%
    23:00 +5°C° 0 mm 4 mps 747 mmHg 96%
    Show more